Flag for Germany Weather past 2 weeks in Oranienburg, Brandenburg, Germany

Now
49 °F

Overcast.


Feels Like: 49 °F
Forecast: 45 / 58 °F
Wind: 1 mph from South

Location: Berlin-Tegel

Current Time: Oct 26, 2014 at 5:47:20 AM

Latest Report: Oct 26, 2014 at 5:00 AM


Visibility: 10 mi

Pressure: 30.25 "Hg

Humidity: 93%

Dew point: 47 °F

Location of OranienburgLocation

Historic Weather in Oranienburg — Graph

°F

Oranienburg temperature yesterday

Maximum temperature yesterday: 49 °F (at 11:00 PM)
Minimum temperature yesterday: 39 °F (at 8:00 AM)
Average temperature yesterday: 44 °F

Past Weeks' High & Low Weather Summary

 TemperatureHumidityPressure
High72 °F (Oct 19, 4:00 PM)97% (Oct 18, 11:00 AM)30.29 "Hg (Oct 18, 11:00 AM)
Low39 °F (Oct 25, 8:00 AM)51% (Oct 15, 3:00 PM)29.44 "Hg (Oct 21, 10:00 PM)
Average55 °F85%29.92 "Hg
* Reported Oct 11 5:00 AM — Oct 26 4:00 AM, Oranienburg, Weather by CustomWeather, © 2014

Note: Actual official high and low records may vary slightly from our data, if they occured in-between our weather recording intervals... More about our weather records

Advertising

Oranienburg weather history for previous 24 hours

 ConditionsComfort  
Time TempWeatherWind HumidityBarometerVisibility
4:00 AM
Oct 26
49 °FOvercast.2 mph94%30.24 "Hg10 mi
3:00 AM48 °FOvercast.1 mph94%30.23 "Hg10 mi
2:00 AM48 °FFog.1 mph94%30.23 "Hg10 mi
2:00 AM49 °FFog.1 mph93%30.22 "Hg7 mi
1:00 AM49 °FOvercast.1 mph94%30.21 "Hg6 mi
12:00 AM49 °FFog.1 mph94%30.20 "Hg4 mi
11:00 PM
Oct 25
49 °FLow clouds.1 mph94%30.18 "Hg4 mi
10:00 PM48 °FRain. Low clouds.1 mph94%30.18 "Hg4 mi
9:00 PM47 °FLight rain. Overcast.1 mph91%30.17 "Hg3 mi
8:00 PM48 °FLight rain. Overcast.2 mph84%30.16 "Hg10 mi
7:00 PM48 °FOvercast.2 mph83%30.16 "Hg7 mi
6:00 PM48 °FOvercast.2 mph82%30.15 "Hg5 mi
5:00 PM48 °FOvercast.3 mph82%30.14 "Hg6 mi
4:00 PM47 °FOvercast.3 mph83%30.14 "Hg6 mi
3:00 PM46 °FLow clouds.5 mph85%30.13 "Hg6 mi
2:00 PM44 °FLow clouds.5 mph88%30.14 "Hg6 mi
1:00 PM43 °FLow clouds.5 mph90%30.15 "Hg5 mi
12:00 PM41 °FFog.3 mph91%30.15 "Hg4 mi
11:00 AM40 °FFog.5 mph92%30.15 "Hg3 mi
10:00 AM40 °FFog.3 mph92%30.15 "Hg2 mi
9:00 AM40 °FFog.3 mph91%30.15 "Hg3 mi
8:00 AM39 °FLow clouds.5 mph90%30.14 "Hg5 mi
7:00 AM40 °FPassing clouds.5 mph86%30.14 "Hg7 mi
6:00 AM41 °FPassing clouds.6 mph85%30.15 "Hg9 mi
5:00 AM42 °FPassing clouds.6 mph84%30.16 "Hg9 mi
Weather by CustomWeather, © 2014

See weather overviewHow to use our weather pages